Location: Grand Rapids
(42.9630°N, 85.6680°W)
Time: 13:44:24
(UTC-04:00)

Envisat - Pass Details

Date: 23 April 2024
Orbit: 762 x 764 km, 98.3° (Epoch: 28 May)

Event Time Altitude Azimuth Distance (km) Brightness Sun altitude
Rises 04:45:13 0° 17° (NNE) 3,237 7.2 -20.2°
Reaches altitude 10° 04:47:35 10° 22° (NNE) 2,307 6.4 -19.8°
Maximum altitude 04:52:34 55° 100° (E) 912 3.6 -19.1°
Enters shadow 04:56:36 15° 175° (S) 1,938 4.8 -18.6°
